GFSGL_prec_cloud_003.txt.gz
Cloud_Cover
11 59 37 100 95 43 35 36 15 19 5 5 79 97 52 5 25 5 91 93 100 100 59 92 100 100 100 100 80 60 26 5 74 4 0 1 5 5 5 5 1 1 3
6 30 100 100 98 98 67 34 53 95 6 62 5 7 5 5 5 6 100 86 84 100 100 100 100 100 100 99 25 5 5 5 11 42 5 5 5 5 5 5 5 5 5
0 4 10 55 100 92 93 100 52 100 44 24 5 9 25 6 5 38 100 100 100 100 100 100 100 100 100 66 71 85 40 88 50 99 12 5 5 5 58 5 5 5 5
63 53 32 98 94 100 100 86 50 92 12 8 5 21 82 65 86 100 100 100 100 100 100 100 100 100 100 25 17 69 95 100 100 100 91 47 88 32 82 62 13 5 5
83 98 100 100 100 100 100 99 91 97 82 14 28 62 89 100 100 85 100 100 100 100 100 100 100 100 100 93 100 100 100 100 100 100 100 100 99 100 100 99 100 62 49
5 33 95 100 100 100 100 100 99 79 44 62 100 100 100 100 100 92 100 100 100 100 100 100 80 90 99 100 100 100 100 100 100 100 100 100 99 100 80 100 100 100 100
7 96 100 100 99 91 100 99 94 98 100 100 100 100 100 100 100 95 100 72 100 100 100 100 96 64 100 98 100 95 73 57 100 100 100 94 98 74 100 74 93 89 49
90 98 100 100 100 100 100 97 80 100 100 100 100 98 70 32 76 82 93 95 91 100 100 100 90 100 81 100 92 94 100 100 100 100 97 68 97 94 100 96 62 13 4
100 100 100 100 100 100 100 100 100 100 100 100 90 77 46 5 5 6 24 56 83 99 44 88 58 87 87 100 100 100 100 87 100 100 100 100 100 100 100 100 100 100 98
100 100 100 100 100 100 100 100 100 100 100 100 87 99 64 99 97 100 42 95 81 36 92 77 92 100 100 100 100 100 100 43 31 100 98 91 84 22 50 100 93 100 100
100 100 100 100 100 100 100 100 100 100 100 100 100 100 95 100 100 74 88 73 58 75 85 100 93 92 100 100 100 96 37 100 99 6 40 98 90 100 100 54 97 100 100
91 99 100 100 100 98 72 99 89 100 100 100 100 100 100 100 100 96 81 93 91 99 48 77 20 100 88 100 98 100 100 96 6 93 100 100 100 100 100 100 46 100 100
100 85 100 100 100 77 94 100 100 100 100 100 100 100 100 100 100 100 100 100 100 92 64 92 93 33 76 14 17 99 39 5 99 100 100 100 100 100 100 100 100 100 90
66 94 100 100 88 99 100 100 100 100 100 100 100 100 100 100 100 100 100 100 100 100 100 78 71 54 5 33 5 5 5 5 84 100 100 100 100 100 100 100 100 100 100
100 100 100 100 100 100 100 100 100 100 100 100 100 100 100 100 100 94 98 100 100 100 100 100 100 66 5 5 5 5 5 32 96 100 98 100 100 100 100 100 100 100 100
100 100 100 100 100 100 100 100 100 100 100 100 100 100 100 100 100 100 100 100 100 100 100 100 79 10 8 20 39 60 58 83 79 100 100 100 100 100 100 100 100 100 100
100 100 100 100 100 100 100 100 100 69 100 100 100 100 100 100 100 100 100 100 100 100 100 100 98 7 15 87 92 100 95 46 45 100 100 100 100 100 100 100 100 100 100
100 100 100 100 100 100 100 100 100 100 100 100 100 100 100 100 100 100 100 100 100 100 100 100 93 17 65 100 100 100 100 92 94 100 100 100 100 100 100 100 100 100 100
100 100 100 100 100 100 100 100 100 100 100 100 100 100 100 100 100 100 100 100 100 100 100 100 99 60 69 83 100 100 100 100 100 100 100 100 100 100 100 100 100 100 100
100 100 94 100 100 100 100 100 100 100 100 100 100 100 100 100 100 100 100 100 100 100 100 100 90 8 35 82 100 100 100 100 100 100 100 100 100 100 100 100 100 100 100
100 100 100 100 100 100 100 100 100 100 100 100 100 100 100 100 100 100 100 100 100 100 100 99 10 25 5 76 100 100 100 100 100 100 100 100 100 100 100 100 100 100 100
100 100 100 100 100 100 100 100 100 100 100 100 100 100 100 100 100 100 100 100 100 100 100 99 13 5 5 72 99 100 100 100 100 100 100 100 100 100 100 100 100 100 100
100 100 100 100 100 100 100 100 100 100 100 100 100 100 100 100 100 100 100 100 100 100 100 95 21 5 5 5 5 60 100 100 100 100 100 100 100 100 100 100 100 100 100
100 100 100 100 100 100 100 100 100 100 100 100 100 100 100 100 100 100 100 100 100 100 90 45 5 5 5 2 4 5 11 65 100 100 53 100 100 100 100 100 100 100 100
100 100 100 100 100 100 100 100 100 100 100 100 100 100 100 100 100 100 100 100 100 89 97 21 5 5 3 0 0 4 5 70 100 100 27 99 100 100 100 100 100 100 100
100 100 100 100 100 100 100 100 100 100 100 100 100 100 100 100 100 100 100 100 100 100 93 5 5 0 0 0 0 5 30 100 100 95 33 100 100 100 100 100 100 100 100

GFSGL_prec_cloud_006.txt.gz
Cloud_Cover
98 93 69 100 37 41 100 100 100 65 13 74 68 7 42 57 80 86 84 5 42 35 30 5 2 14 4 6 36 25 76 80 34 66 5 5 78 100 100 93 26 87 17
100 100 100 100 100 100 98 99 100 100 60 20 100 100 92 100 100 100 100 70 5 35 67 5 5 40 85 49 75 70 12 45 37 35 89 34 71 100 100 81 0 1 5
73 100 99 100 16 55 100 100 100 100 100 100 95 99 99 96 100 56 99 87 5 5 5 5 5 97 82 83 79 46 67 15 9 65 94 26 53 100 88 100 6 5 14
63 70 100 100 100 92 63 100 100 100 100 100 100 100 86 6 56 92 18 5 5 5 8 79 96 98 97 87 100 100 51 98 69 100 96 54 15 24 74 65 85 96 100
82 24 100 100 100 100 96 100 100 100 97 27 40 10 5 5 10 28 23 73 87 79 58 98 100 60 25 100 24 6 18 37 100 100 100 98 94 98 100 54 93 79 87
5 5 12 98 100 100 36 99 100 100 90 100 96 89 22 100 100 49 59 93 100 100 100 100 68 5 5 5 33 100 100 100 100 100 100 100 38 100 100 100 100 100 92
99 9 76 75 57 100 100 100 100 100 93 100 100 100 100 100 94 99 100 100 79 100 100 99 49 65 34 5 5 77 73 35 97 100 100 100 100 60 86 98 100 99 75
100 86 98 100 100 100 100 100 100 100 100 100 100 100 100 100 100 100 100 79 100 91 100 100 99 95 5 5 34 6 5 30 71 100 100 100 100 100 100 100 100 100 100
100 100 100 100 100 100 100 100 100 100 100 100 100 100 100 100 100 100 100 86 100 100 100 100 92 60 59 99 87 54 20 38 90 92 93 100 100 100 96 100 94 100 90
100 100 100 100 100 100 100 100 100 100 100 100 100 100 100 100 98 100 100 79 98 100 100 100 100 99 100 100 59 79 100 97 12 13 98 26 3 1 28 96 97 100 100
92 96 100 100 100 100 84 80 90 100 100 100 100 99 99 100 100 100 96 100 100 100 100 100 100 88 99 100 100 95 77 53 94 60 3 5 5 5 14 94 100 100 100
78 99 100 100 100 99 91 5 30 100 100 69 81 100 100 94 91 99 97 99 100 100 100 100 100 30 98 100 99 87 100 100 25 5 19 69 73 34 5 37 100 100 100
100 100 100 99 97 100 94 44 50 98 100 100 100 100 100 100 99 99 97 100 100 100 100 100 100 96 38 57 53 91 24 4 5 41 55 5 22 5 5 64 100 100 100
100 100 100 99 100 100 100 100 100 100 100 100 100 100 100 100 87 97 100 100 100 100 100 100 61 94 48 5 49 100 54 5 5 5 22 5 5 50 29 63 100 100 100
100 100 100 100 100 100 100 100 100 100 100 100 100 100 100 100 100 100 100 100 100 100 100 100 100 100 100 70 30 96 68 5 5 5 45 26 70 89 49 75 100 100 100
100 100 100 100 100 100 100 100 100 100 100 100 100 100 100 100 100 100 100 100 100 100 100 100 99 97 100 100 99 96 84 28 5 9 77 87 99 100 100 100 100 100 100
100 100 100 100 100 100 100 100 100 100 100 100 100 100 100 100 100 100 100 100 100 100 100 100 100 100 100 100 100 100 100 79 34 100 100 100 100 100 100 100 100 100 100
100 100 100 100 100 100 100 100 100 100 100 100 100 100 100 100 100 100 100 100 100 100 100 100 100 100 100 100 100 100 100 100 87 100 100 100 100 100 100 100 100 100 100
100 100 100 100 100 100 100 100 100 100 100 100 100 100 100 100 100 100 100 100 100 100 100 100 100 100 100 100 100 100 100 100 97 100 100 100 100 100 100 100 100 100 100
100 100 100 100 100 100 100 100 100 100 100 100 100 100 100 100 100 100 100 100 100 100 100 100 100 100 100 100 100 100 99 76 98 100 100 100 100 100 100 100 100 100 100
100 100 100 100 100 100 100 100 100 100 100 100 100 100 100 100 100 100 100 100 100 100 77 100 100 100 100 100 100 100 62 74 87 100 100 100 100 100 100 100 100 100 100
100 100 100 100 100 100 100 100 100 100 100 100 100 100 100 100 100 100 100 100 100 100 100 100 100 100 100 100 100 96 59 64 73 100 100 100 100 100 100 99 99 100 100
100 100 100 100 100 100 100 100 100 100 100 100 100 100 100 100 100 100 100 100 100 100 100 100 100 100 100 100 100 96 20 5 9 100 100 100 100 100 100 100 77 100 100
100 100 100 100 100 100 100 100 100 100 100 100 100 100 100 100 100 100 100 100 100 100 100 100 100 100 100 100 98 46 6 5 9 100 100 100 100 100 100 100 100 100 100
100 100 100 100 100 100 100 100 100 100 100 100 100 100 100 100 100 100 100 100 100 100 100 100 100 100 100 100 99 54 5 6 64 100 100 52 82 100 82 89 88 100 100
100 100 100 100 100 100 100 100 100 100 100 100 100 100 100 100 100 100 100 100 100 100 100 100 100 100 100 99 47 5 6 66 100 100 99 8 100 97 34 100 100 100 100

GFSGL_prec_cloud_009.txt.gz
Cloud_Cover
100 100 100 100 100 100 100 100 100 100 100 100 100 100 100 100 98 12 5 9 71 100 100 100 100 99 13 5 5 16 44 14 5 0 4 10 94 100 100 100 86 22 39
65 100 100 100 100 100 100 100 100 100 100 100 100 100 100 100 100 99 38 10 9 35 98 92 98 100 100 5 12 35 3 5 0 5 86 71 100 90 96 84 5 4 5
99 5 93 100 100 100 100 100 100 100 100 100 100 100 100 100 100 100 100 15 13 19 65 99 97 98 70 31 5 5 13 2 3 5 17 58 86 2 10 43 9 4 2
100 100 100 100 100 100 79 100 100 100 100 100 100 100 100 100 100 100 100 100 100 60 41 66 85 56 24 5 5 5 21 5 8 13 90 20 5 5 5 4 4 5 5
100 100 100 100 100 100 100 100 100 100 100 61 5 100 100 100 96 99 100 100 100 78 98 42 33 9 96 5 29 64 16 45 12 73 88 49 5 5 5 5 5 5 5
100 86 23 99 97 12 96 100 100 100 100 14 8 100 100 52 100 100 100 37 100 100 100 71 48 99 6 20 100 100 15 40 94 97 100 97 5 5 5 40 97 100 90
94 100 42 12 80 11 100 88 94 98 100 100 100 100 100 100 100 100 97 100 100 100 77 96 98 44 32 100 100 58 72 56 57 49 57 48 10 29 100 100 100 100 100
100 100 100 100 95 93 100 100 100 100 100 100 100 100 100 100 100 100 100 100 100 100 100 100 100 100 79 75 77 5 17 44 5 4 5 21 91 100 100 100 100 59 5
100 100 100 100 100 100 100 100 100 100 100 100 100 100 100 100 100 100 100 100 100 100 100 99 100 100 88 100 77 26 36 75 13 93 99 88 98 100 90 55 5 90 57
6 50 98 100 100 100 100 100 100 100 100 100 100 100 100 100 100 100 100 100 100 100 100 100 100 100 95 91 100 50 7 59 66 9 26 67 5 3 0 1 5 99 100
28 49 99 100 100 100 100 99 100 100 100 100 100 100 100 100 100 100 100 100 100 100 100 100 74 100 94 100 100 94 100 73 78 47 7 10 0 0 1 3 5 5 100
98 100 100 100 100 98 100 100 90 56 90 100 100 100 100 100 100 100 100 100 100 100 100 99 67 90 100 100 97 96 100 99 31 10 5 5 5 5 3 5 5 5 5
100 100 100 100 100 100 100 67 90 100 100 100 100 100 100 100 100 100 100 100 100 100 100 98 98 100 100 93 88 97 74 63 16 31 8 71 5 5 5 5 5 5 10
100 100 100 100 100 100 100 100 100 100 100 100 100 100 100 100 100 100 100 100 100 100 100 100 100 100 100 100 83 75 31 40 35 10 19 94 5 5 5 5 66 81 100
100 100 100 100 100 100 100 100 100 100 100 100 100 100 100 100 91 96 100 100 100 100 100 100 100 100 100 100 100 100 100 100 96 61 5 5 20 8 5 5 7 93 100
100 100 100 100 100 100 100 100 100 100 100 100 100 100 100 100 100 100 100 100 100 100 100 100 100 100 100 100 100 100 100 100 100 36 18 59 78 70 45 9 81 100 100
100 100 100 100 100 100 100 100 100 100 100 100 100 100 100 100 100 100 100 100 100 100 100 100 100 100 100 100 100 100 100 100 100 99 72 82 90 100 89 100 100 100 100
100 100 100 100 100 100 100 100 100 100 100 100 100 100 100 100 100 100 100 100 100 100 100 100 100 100 100 100 100 100 100 100 100 100 41 90 82 100 100 100 100 100 100
100 100 100 100 100 100 100 100 100 100 100 100 100 100 100 100 100 100 100 100 100 100 100 100 100 100 100 100 100 100 100 100 100 100 23 56 94 100 100 100 100 100 100
100 100 100 100 100 100 100 100 100 100 100 100 100 100 100 100 100 100 100 100 100 100 100 100 100 100 100 100 100 100 100 100 100 34 93 89 92 100 100 100 100 100 100
100 100 99 100 100 100 100 100 100 100 100 100 100 100 100 100 100 100 100 100 100 100 100 100 100 100 100 100 100 100 100 100 99 61 100 78 99 100 100 100 100 100 100
100 100 100 100 100 100 100 100 100 100 100 100 100 100 100 100 100 100 100 100 100 100 100 100 100 100 100 100 100 100 100 100 87 81 99 99 100 100 100 100 100 100 94
100 100 100 100 100 100 100 100 100 100 100 100 100 100 100 100 100 100 100 100 100 100 100 100 100 100 100 100 100 100 100 98 100 97 74 100 100 100 100 100 100 89 10
100 100 100 100 100 100 100 100 100 100 100 100 100 100 100 100 100 100 100 100 100 100 100 100 100 100 100 100 100 100 100 100 100 86 100 100 100 100 100 100 98 5 5
100 100 100 100 100 100 100 100 100 100 100 100 100 100 100 100 100 100 100 100 100 100 100 100 100 100 100 100 100 100 100 100 99 92 100 100 100 81 100 99 33 5 5
100 100 100 100 100 100 100 100 100 100 100 100 100 100 100 100 100 100 100 100 100 100 100 100 100 100 100 100 100 100 100 100 100 100 100 100 99 40 100 100 74 5 0

GFSGL_prec_cloud_015.txt.gz
Cloud_Cover
100 99 100 100 100 100 90 82 100 100 100 100 100 100 100 100 100 21 78 100 100 100 100 100 73 42 37 100 100 100 100 100 100 99 98 85 96 96 6 4 2 5 4
98 100 100 100 100 99 71 92 100 61 52 98 100 99 88 24 100 66 96 100 100 100 100 100 85 13 18 62 95 100 100 100 100 100 100 100 100 99 98 90 5 4 3
100 100 100 100 100 100 100 100 100 100 100 100 100 100 100 100 100 100 100 100 100 100 100 100 100 100 100 94 100 99 100 100 100 100 100 77 40 54 28 37 7 9 10
100 100 100 100 100 100 100 100 100 100 100 100 100 100 100 100 100 100 100 100 100 100 100 100 100 100 100 100 100 100 100 100 100 100 92 100 100 5 5 27 75 49 46
100 100 100 100 100 100 100 100 100 100 100 100 100 100 100 100 100 100 100 100 100 100 100 100 100 100 100 100 100 100 100 99 37 100 100 91 48 74 92 42 44 53 49
93 91 100 100 100 100 100 100 100 100 100 100 100 100 100 100 100 100 100 100 100 100 100 100 100 100 100 100 100 100 100 100 100 100 99 19 58 99 24 5 65 69 78
100 100 66 29 22 100 100 100 100 100 100 100 100 100 100 100 100 100 100 100 100 100 100 100 100 100 100 100 100 100 100 96 100 94 63 98 63 9 38 42 78 82 20
98 97 100 100 88 74 94 92 100 100 100 100 100 100 100 100 100 100 100 100 100 100 100 100 100 100 100 100 100 100 100 100 100 100 100 95 37 73 7 100 86 39 4
1 10 54 61 90 100 98 90 98 100 100 100 100 100 100 100 100 100 100 100 100 100 100 100 100 100 100 100 100 100 100 100 100 100 100 100 90 94 100 94 13 5 18
0 0 8 100 66 6 83 100 100 100 98 44 99 100 100 100 100 100 100 100 100 100 100 100 100 100 100 100 100 100 100 100 100 100 100 100 100 100 100 100 100 41 95
0 0 0 84 100 45 35 46 92 93 96 37 78 62 100 100 100 100 88 90 100 100 100 100 100 100 100 100 100 100 100 100 100 100 100 100 100 100 100 100 100 76 61
0 0 0 0 100 100 94 21 22 84 84 91 99 35 100 100 97 76 6 75 100 100 100 100 100 100 100 100 100 100 100 100 100 100 100 100 100 100 100 100 64 26 100
3 0 0 0 0 5 22 41 90 95 98 86 92 70 51 100 100 96 99 99 100 100 100 100 100 100 100 100 100 100 100 100 100 100 100 100 100 100 100 100 36 77 21
5 5 4 5 5 5 5 5 5 84 100 100 100 100 100 100 100 100 96 76 100 100 100 100 100 100 100 100 100 100 100 100 100 100 100 100 100 100 100 100 73 29 62
13 7 5 6 5 5 5 5 56 8 99 100 100 100 100 100 100 100 100 100 100 100 100 100 100 100 100 100 100 100 100 100 100 100 100 100 100 100 100 100 96 92 95
100 100 100 100 99 100 100 87 37 98 99 100 100 100 100 100 100 100 100 100 100 100 100 100 100 100 100 100 100 100 100 100 100 100 100 100 100 100 100 100 100 100 100
100 100 100 100 100 100 100 100 100 16 76 100 100 100 100 100 100 100 100 100 100 100 100 100 100 100 100 100 100 100 100 100 100 100 100 100 100 100 100 100 100 100 100
100 100 100 100 100 100 100 100 100 100 100 100 99 86 100 100 100 100 100 100 100 100 100 100 100 100 100 100 100 100 100 100 100 100 100 100 100 100 100 100 100 100 100
100 100 100 100 100 100 100 100 100 100 100 100 100 84 71 100 100 100 100 100 100 100 100 100 100 100 100 100 100 100 100 100 100 100 100 100 100 100 100 100 100 100 95
100 100 100 100 100 100 100 100 100 100 100 100 100 94 100 100 100 100 100 100 100 100 100 100 100 100 100 100 100 100 100 100 100 100 100 100 100 100 100 100 91 100 100
100 100 100 100 100 100 100 100 100 100 100 100 100 100 100 100 100 100 100 100 100 100 100 100 100 100 100 100 100 100 100 100 100 100 100 100 100 100 100 100 99 100 100
100 100 100 100 100 100 100 100 100 100 100 100 100 100 100 100 100 100 100 100 100 100 100 100 100 100 100 100 100 100 100 100 100 100 100 100 100 100 100 100 100 99 100
100 100 100 100 100 100 100 100 100 100 100 100 100 100 100 100 100 100 100 100 100 100 100 100 100 100 100 100 100 100 100 100 100 100 100 100 100 100 100 100 100 97 100
100 100 100 100 100 100 100 100 100 100 100 100 100 100 100 100 100 100 100 100 100 100 100 100 100 100 100 100 100 100 100 100 100 100 100 100 100 100 99 100 100 83 100
100 100 100 100 100 100 100 100 100 100 100 100 100 100 100 100 100 100 100 100 100 100 100 100 100 100 100 100 100 100 100 100 100 100 100 100 100 100 100 100 100 100 100
100 100 100 100 100 100 100 100 100 100 100 100 100 100 100 100 100 100 100 100 100 100 100 100 100 100 100 100 100 100 100 100 100 100 100 100 100 100 100 100 96 100 100

GFSGL_prec_cloud_021.txt.gz
Cloud_Cover
100 100 100 100 100 100 100 100 100 100 100 100 83 17 26 95 92 70 43 40 26 100 100 100 65 62 13 5 46 4 5 18 36 61 100 99 96 74 80 91 99 92 100
100 100 100 100 100 100 100 100 100 100 100 100 100 100 100 100 98 79 50 88 55 31 94 100 100 100 100 100 96 5 5 7 5 36 48 100 100 100 100 100 100 100 100
100 100 100 100 100 100 100 100 100 100 100 100 100 100 100 100 100 100 100 91 19 5 98 40 96 100 100 100 100 100 100 100 52 44 42 100 26 47 100 100 100 100 100
100 100 100 100 100 100 100 100 100 100 100 100 92 100 100 100 100 100 89 88 99 60 63 95 100 100 100 100 100 100 100 100 100 36 74 98 38 40 75 100 100 100 100
100 100 100 100 100 100 100 100 100 100 100 100 100 100 100 100 100 100 100 100 84 46 82 100 100 100 100 100 100 100 100 100 100 100 100 100 92 99 100 100 100 98 100
0 0 20 37 38 85 100 100 100 100 100 100 100 86 100 100 100 100 100 100 100 100 94 100 100 100 100 100 100 100 100 100 100 100 100 100 100 100 100 100 100 100 100
0 0 0 0 0 0 1 59 99 100 100 100 100 100 100 100 100 100 100 100 100 100 100 100 100 100 100 100 100 100 100 100 100 100 100 100 100 100 100 100 100 100 100
0 0 0 0 0 0 0 0 0 11 63 69 67 47 30 51 66 80 98 100 100 100 100 100 100 100 100 100 100 100 100 100 100 100 100 89 100 100 100 100 100 100 100
0 0 0 0 0 0 0 0 0 0 0 0 0 0 0 0 0 0 3 5 66 100 100 100 100 100 100 100 100 100 100 100 100 100 100 100 85 100 100 100 100 100 100
0 0 0 0 1 2 4 1 0 0 0 0 0 0 0 0 0 0 0 5 5 5 97 100 100 100 100 100 100 100 100 100 100 100 100 100 100 100 100 100 100 100 100
2 5 5 5 5 5 11 18 5 5 5 5 1 0 0 0 0 0 0 2 5 5 6 66 100 100 100 100 100 100 100 100 100 100 100 100 100 100 100 100 100 100 100
5 5 5 22 60 87 99 96 100 100 99 54 51 5 0 0 0 0 5 5 5 6 33 48 95 100 100 100 100 100 100 100 100 100 100 100 100 100 100 100 100 100 100
5 5 5 8 29 98 100 100 100 100 100 100 100 94 7 1 0 0 4 5 5 57 32 63 100 100 100 100 100 100 100 100 100 100 100 100 100 100 100 100 100 100 100
5 5 14 72 84 98 100 100 100 100 100 100 100 100 100 96 20 18 69 72 16 12 8 49 100 100 100 100 100 100 100 100 100 100 100 100 100 100 100 100 100 100 100
92 100 100 100 100 100 100 100 100 100 100 100 100 100 100 100 100 100 100 98 100 53 100 98 100 100 100 100 100 100 100 100 100 100 100 100 100 100 100 100 100 100 100
100 100 100 100 100 100 100 100 100 100 100 100 100 100 100 100 100 100 100 100 100 100 100 98 100 100 100 100 100 100 100 100 100 100 100 100 100 100 100 100 100 100 100
100 100 100 100 100 100 100 100 100 81 100 100 100 100 100 100 100 100 100 100 100 100 100 100 100 100 100 100 100 100 100 100 100 100 100 100 100 100 100 100 100 100 100
100 100 100 100 100 100 100 100 100 100 100 90 100 100 100 100 100 100 100 100 100 100 100 100 100 100 100 100 100 100 100 100 100 100 100 100 100 100 100 100 100 100 100
100 100 100 100 100 100 100 100 100 100 100 100 100 100 100 100 100 100 100 100 100 96 100 100 99 100 100 100 100 100 100 100 100 100 100 100 100 100 100 100 100 100 100
100 100 100 100 100 100 100 100 100 100 100 100 100 100 100 100 100 100 100 100 98 86 100 100 100 100 100 100 100 100 100 100 100 100 100 100 100 100 100 100 100 100 100
100 100 100 100 100 100 100 100 100 100 100 100 100 100 100 100 100 100 100 100 100 100 100 100 100 100 100 100 100 100 100 100 100 100 100 100 100 100 100 100 100 100 100
100 100 100 100 100 100 100 100 100 100 100 100 100 100 100 100 100 100 100 100 100 100 100 100 100 100 100 100 100 100 100 100 100 100 100 100 100 100 100 100 100 100 100
100 100 100 100 100 100 100 100 100 100 100 100 100 100 100 100 100 100 100 100 100 100 100 100 100 100 100 100 100 100 100 100 100 100 100 100 100 100 100 100 100 100 100
100 100 100 100 100 100 100 100 100 100 100 100 100 100 100 100 100 100 100 100 100 100 100 100 100 100 100 100 100 100 100 100 100 100 100 100 100 100 100 100 100 100 100
100 100 100 100 100 100 100 100 100 100 100 100 100 100 100 100 100 100 100 100 100 100 100 100 100 100 100 100 100 100 100 100 100 100 100 100 100 100 100 100 100 100 100
23 59 100 100 100 100 100 100 100 100 100 100 100 100 100 100 100 100 100 100 100 100 100 100 100 100 100 100 100 100 100 100 100 100 100 100 100 100 100 100 100 100 100

GFSGL_prec_cloud_027.txt.gz
Cloud_Cover
100 100 100 100 100 100 96 100 100 96 100 100 100 100 100 38 20 83 98 53 60 70 100 100 94 44 5 5 14 51 5 5 2 5 6 5 1 0 0 0 0 0 0
85 98 96 100 100 100 100 100 100 100 100 100 74 100 100 93 81 81 41 71 100 99 98 95 100 100 99 89 85 45 5 5 5 5 5 16 50 5 4 4 0 0 5
100 100 61 28 65 91 100 95 100 100 100 100 100 98 100 100 100 100 100 100 100 90 100 100 100 100 100 100 100 100 99 75 10 5 5 52 95 100 61 22 5 1 8
4 12 84 77 1 31 4 34 98 25 58 98 100 99 84 100 100 100 100 92 81 98 100 100 100 100 100 100 100 100 100 100 90 52 5 5 5 42 84 67 88 68 28
50 8 5 5 1 3 5 5 5 5 95 49 70 89 85 100 30 91 100 66 54 60 89 100 82 100 100 100 96 95 100 100 100 98 70 5 2 6 85 99 100 100 63
0 2 0 0 0 0 0 0 0 0 0 2 98 92 98 73 48 0 26 52 85 75 5 13 98 61 52 89 100 100 100 100 100 100 100 100 50 9 100 100 100 100 100
5 5 3 3 2 0 3 0 0 0 0 0 0 0 60 100 95 1 5 5 5 5 5 5 5 0 5 61 88 94 90 100 100 100 100 100 100 100 97 100 100 100 100
5 5 5 5 5 5 3 0 0 0 2 3 4 5 4 2 5 7 61 56 5 5 5 5 5 5 3 1 1 3 4 5 95 100 100 100 100 100 100 100 100 100 100
1 3 5 5 5 2 0 0 3 5 5 5 5 8 82 5 40 99 100 100 83 63 13 5 5 5 5 5 5 5 5 4 0 94 100 93 100 100 100 100 100 100 100
5 3 0 0 5 5 5 5 5 5 5 5 5 5 5 9 6 99 100 100 100 100 78 34 6 6 5 8 43 8 5 5 5 5 5 98 100 100 100 100 100 100 100
4 0 1 2 0 4 5 5 5 5 6 17 28 27 57 58 57 100 100 100 100 100 100 100 100 80 95 94 88 88 76 5 5 5 7 12 83 100 100 100 100 100 100
4 5 5 4 5 5 5 5 11 73 97 100 99 100 100 77 21 91 100 100 100 100 100 100 100 100 100 100 100 94 20 89 100 97 93 87 100 100 98 100 100 100 100
5 5 5 5 5 5 41 92 100 100 100 100 100 100 99 5 5 21 88 100 100 100 99 47 98 100 100 100 100 100 100 100 100 100 100 66 92 87 100 100 100 100 100
5 5 5 5 5 22 5 5 100 100 100 100 100 100 100 100 100 100 100 68 19 26 5 5 5 56 100 100 74 99 100 100 100 97 94 65 92 100 99 100 100 100 100
5 7 48 36 46 28 30 91 100 100 100 100 100 100 100 100 100 100 100 100 100 100 100 100 100 100 100 100 100 100 100 100 84 92 100 100 100 100 98 100 90 100 100
80 70 72 100 77 100 100 96 59 100 100 100 100 100 100 100 100 100 100 100 100 100 100 99 95 100 100 100 100 100 100 51 5 88 100 100 100 100 96 100 100 100 100
89 100 100 100 100 100 100 100 100 67 84 100 100 100 100 100 100 100 100 100 100 100 100 91 100 48 77 100 100 100 100 98 100 100 100 100 100 100 100 100 100 99 100
81 71 100 100 100 100 100 100 100 100 100 66 77 100 100 100 100 100 100 100 95 49 100 100 100 100 76 90 74 62 59 97 100 97 100 100 100 100 100 100 100 96 100
93 95 100 100 100 100 100 100 100 100 100 100 100 91 67 86 100 100 100 100 100 100 100 100 100 100 100 100 94 58 5 95 93 87 100 100 100 100 100 100 100 100 100
66 99 100 100 100 100 100 100 100 100 100 100 100 100 90 100 73 94 100 100 100 100 100 100 100 100 100 100 100 100 100 100 100 100 100 100 100 100 100 100 100 100 100
100 100 100 100 100 100 100 100 100 100 100 100 100 100 100 100 100 100 100 100 100 100 100 100 100 100 100 100 100 100 100 100 100 100 100 100 100 100 100 100 100 100 100
100 100 100 100 100 100 100 100 100 100 100 100 100 100 100 100 100 100 100 100 100 100 100 100 100 100 100 100 100 100 100 100 100 100 100 100 100 100 100 100 100 100 100
100 100 100 100 100 91 92 60 94 100 100 100 100 100 100 100 100 100 100 100 100 100 100 100 100 100 100 100 100 100 100 100 100 100 100 100 100 100 100 100 100 100 100
100 100 100 99 92 77 73 76 81 96 100 100 100 100 100 100 100 100 100 100 100 100 100 100 100 100 100 100 100 100 100 100 100 100 100 100 100 100 100 100 100 100 100
100 100 100 90 77 58 19 5 21 21 50 81 90 96 95 97 99 100 100 100 100 100 100 100 100 100 100 100 100 100 100 100 100 100 100 100 100 100 100 100 100 100 100
100 100 100 95 96 70 12 6 5 5 5 5 22 68 73 69 74 73 63 91 100 100 98 100 100 100 100 100 100 100 100 100 100 100 100 100 100 100 100 100 100 100 100

GFSGL_prec_cloud_033.txt.gz
Cloud_Cover
0 4 1 0 0 0 0 0 0 0 2 23 84 89 5 11 75 84 5 76 11 97 96 56 99 100 100 100 100 100 100 55 13 96 100 100 100 93 56 5 5 4 0
5 5 0 0 0 0 0 0 0 0 0 0 0 0 0 1 91 94 0 0 0 5 100 100 99 59 100 100 100 100 100 100 51 5 35 84 100 100 100 100 56 5 5
0 0 0 0 0 0 0 0 0 1 2 3 1 0 0 0 0 0 0 0 0 0 0 4 3 10 88 100 100 100 100 100 92 5 5 66 100 100 100 100 100 100 86
0 0 0 0 0 0 0 2 5 5 5 5 3 0 0 0 0 0 0 0 0 0 0 0 0 1 5 4 62 89 96 100 91 7 5 5 99 99 100 100 100 100 100
4 3 0 0 0 1 5 5 5 5 0 0 0 0 0 0 0 3 5 5 5 5 5 5 5 1 13 5 5 5 18 49 100 56 5 5 5 20 100 100 100 100 100
4 2 0 4 5 5 5 0 0 0 0 0 0 0 0 0 2 5 58 41 41 99 100 64 6 5 5 5 33 65 85 98 95 97 91 43 5 5 74 100 100 100 100
5 5 5 5 5 4 0 0 0 0 0 0 0 0 0 0 5 53 94 90 48 41 78 97 100 100 98 100 82 87 71 17 46 94 100 92 84 15 41 94 100 100 100
5 5 5 4 5 0 0 0 0 0 0 0 0 3 5 4 5 44 98 100 100 100 100 100 100 99 96 100 87 34 66 53 5 61 99 20 22 34 78 25 94 100 98
5 5 5 4 5 4 5 4 0 5 5 5 5 5 5 5 6 92 100 100 100 100 100 100 100 100 100 100 100 79 44 9 28 76 95 100 100 100 91 83 73 87 52
5 5 5 5 5 5 5 5 5 5 5 5 5 5 5 5 5 83 100 100 100 100 100 73 83 100 100 100 100 100 97 95 96 100 94 10 17 48 84 97 100 100 98
5 6 15 8 5 5 5 5 5 5 5 5 5 5 5 5 5 53 100 100 100 100 100 100 94 92 100 100 100 100 96 100 75 36 40 82 89 76 100 93 9 96 100
98 92 90 89 35 5 5 5 5 5 56 13 5 5 5 0 3 87 100 100 100 100 99 39 14 97 100 100 100 99 100 100 99 86 96 99 95 100 78 99 100 98 89
100 100 100 100 65 5 26 5 18 5 49 68 88 86 5 5 5 80 100 100 100 100 96 100 100 100 100 100 88 7 78 64 21 54 8 4 3 8 68 100 99 76 55
85 100 100 94 75 32 5 5 13 34 80 100 93 100 97 99 100 66 20 99 100 100 100 92 80 100 97 90 92 32 5 5 10 48 63 43 20 13 45 97 100 100 100
97 100 100 100 80 5 5 5 32 89 100 100 100 100 100 100 96 100 100 100 100 100 100 100 100 100 100 100 100 100 89 38 20 5 48 97 100 100 76 100 100 100 100
63 77 91 78 22 5 5 5 8 92 100 100 100 100 100 100 100 100 100 100 100 100 98 74 62 88 93 96 100 100 100 100 100 100 100 100 100 100 100 100 100 100 100
69 78 81 75 5 23 15 64 96 3 16 82 100 100 100 100 100 100 100 100 100 100 90 100 100 100 100 100 100 100 100 100 100 100 100 100 100 100 100 100 100 100 100
69 81 98 5 25 44 65 94 97 100 83 100 59 100 100 100 100 100 100 60 37 39 100 100 100 100 100 100 100 100 100 100 100 100 100 100 100 100 100 100 100 100 98
89 100 15 29 69 66 58 35 74 88 98 100 100 36 35 99 99 91 96 84 100 100 100 100 100 100 100 100 100 100 100 100 100 100 100 100 100 100 100 100 100 100 98
80 75 92 96 100 97 84 52 46 60 94 100 100 100 92 98 8 59 75 100 100 100 100 100 100 100 100 100 100 100 100 100 100 100 100 100 100 100 100 100 100 100 100
93 64 7 8 91 75 9 48 24 63 100 100 97 100 100 77 63 95 100 100 100 100 100 100 100 100 100 100 100 100 100 100 100 100 100 100 100 100 100 100 100 100 100
7 88 94 100 76 42 14 5 18 100 100 100 100 100 92 60 28 17 67 86 100 100 100 100 100 100 100 100 100 100 100 100 100 100 100 100 100 100 100 100 100 100 100
90 74 42 17 25 17 5 5 100 100 100 100 100 99 99 35 35 5 5 5 8 62 97 100 100 100 100 100 100 100 100 100 100 100 100 100 100 100 99 97 90 100 100
77 19 18 28 5 46 60 100 100 100 100 100 100 100 100 57 40 5 5 5 5 5 5 64 97 100 100 100 100 100 100 100 100 100 100 96 100 100 100 100 100 100 100
54 6 22 94 96 91 100 100 100 100 100 100 100 100 67 19 5 5 5 5 5 5 5 5 48 98 100 100 100 100 100 100 100 100 96 100 100 100 100 100 100 100 100
100 100 100 100 100 100 100 100 100 100 100 100 92 60 13 9 6 5 5 5 5 6 5 5 5 36 87 100 100 100 100 100 75 100 100 100 100 100 100 100 100 100 100

GFSGL_prec_cloud_036.txt.gz
Cloud_Cover
12 28 68 12 10 48 3 1 0 0 0 0 0 0 0 0 0 0 0 0 0 0 0 2 39 12 59 100 78 41 68 12 6 41 100 100 100 100 100 90 38 99 14
30 8 23 100 68 8 0 0 0 0 0 0 0 0 0 0 0 0 0 0 0 0 0 0 0 0 0 4 94 100 39 6 5 5 7 100 100 100 100 100 100 66 19
100 94 36 5 0 0 0 0 3 5 5 5 4 3 0 0 0 0 0 0 0 0 0 0 3 4 3 2 5 19 20 4 5 5 5 3 64 100 100 100 100 100 100
20 15 0 0 0 0 2 5 5 5 1 0 0 0 0 0 0 0 0 2 5 5 5 5 5 5 5 5 5 13 22 5 13 66 52 31 5 28 100 100 100 100 100
2 0 0 0 2 3 5 5 0 0 0 0 0 0 0 0 0 0 4 5 5 5 5 5 34 78 98 100 100 97 99 87 99 100 100 98 86 30 11 94 100 100 100
0 5 5 5 5 5 5 0 0 0 0 0 0 0 0 0 0 5 10 5 5 5 6 6 17 53 31 98 100 100 100 100 100 100 100 100 100 100 78 14 52 100 100
5 5 5 5 5 4 2 0 0 0 0 0 0 0 0 0 2 32 90 84 87 100 100 96 57 38 79 62 62 94 87 95 100 100 100 97 100 100 100 97 51 20 70
5 5 5 4 3 5 2 1 0 0 0 0 0 5 3 0 5 36 100 98 98 100 100 99 98 70 30 100 100 75 54 54 69 90 72 50 72 86 93 51 48 30 29
4 5 5 3 5 0 4 4 4 4 5 5 4 5 5 4 5 76 100 100 100 100 98 24 5 16 90 100 100 100 100 96 33 55 100 100 100 100 100 100 100 100 97
5 5 1 5 5 5 5 5 5 7 5 5 5 5 5 5 4 69 100 100 100 100 8 52 96 100 100 100 100 100 100 66 5 5 2 1 0 0 1 76 100 100 100
5 3 5 23 5 65 5 24 5 5 5 5 5 5 5 5 5 85 100 100 100 100 100 89 5 44 100 100 100 100 75 100 77 86 100 100 100 53 45 5 0 100 100
5 5 47 94 39 35 21 100 60 66 10 5 5 5 5 2 4 71 100 100 100 100 100 100 98 100 100 100 100 100 100 100 98 39 2 0 0 0 0 0 0 0 89
5 5 65 98 100 86 85 99 98 100 62 26 5 5 5 5 7 90 47 86 100 100 100 100 100 100 100 100 82 92 99 83 59 90 88 74 62 57 86 67 6 4 1
5 5 96 100 100 90 100 87 96 100 50 58 77 70 55 100 87 7 73 100 100 89 100 100 94 84 60 73 10 13 12 15 89 98 100 92 49 44 77 97 100 90 61
5 7 76 97 100 100 100 100 100 100 80 100 100 100 100 100 57 100 100 100 100 100 100 36 5 11 46 65 87 98 85 100 100 100 100 100 100 97 98 99 100 100 100
32 67 100 66 99 99 100 100 100 91 100 100 100 100 100 100 100 100 100 100 100 100 54 16 86 100 100 100 100 100 100 100 100 100 100 100 100 100 100 100 100 100 100
92 100 100 100 99 100 100 95 46 86 89 94 100 100 100 100 100 100 100 100 99 83 29 79 100 100 100 100 100 100 100 100 100 100 100 100 100 100 100 100 100 100 100
78 100 100 100 100 100 100 100 64 94 91 100 60 96 100 100 100 100 100 69 13 28 85 100 100 100 100 100 100 100 100 100 100 100 100 100 100 100 100 100 100 100 100
100 100 100 100 100 100 100 100 96 49 38 17 5 5 4 74 100 85 94 37 96 99 97 100 100 100 100 100 100 100 100 100 100 100 100 100 100 100 100 100 100 100 100
98 100 96 100 100 99 100 86 81 63 6 15 5 5 39 100 98 37 8 12 74 100 100 100 100 100 100 100 100 100 100 100 100 100 100 100 100 100 100 100 100 100 100
98 87 83 75 96 41 27 14 5 21 28 5 5 14 100 100 100 100 96 15 13 5 80 100 100 100 100 100 100 100 100 100 100 100 100 100 100 100 100 100 100 100 100
58 100 100 96 67 54 15 5 6 43 5 17 5 100 100 100 100 100 90 58 10 5 5 14 85 98 100 100 100 100 100 100 100 100 100 100 100 100 100 98 100 100 100
75 82 74 92 100 100 91 27 52 28 9 29 100 100 100 100 100 96 49 5 5 5 5 5 5 5 5 66 97 100 100 100 100 100 100 100 100 100 100 99 86 97 100
100 64 95 48 46 24 6 10 86 88 77 100 100 100 100 100 100 34 5 5 5 5 5 5 5 5 5 8 79 86 100 100 100 100 100 100 100 99 100 100 99 100 100
100 100 99 73 34 11 96 100 100 100 99 100 100 100 100 100 88 53 6 5 5 5 5 5 5 5 5 5 67 57 91 100 100 100 100 94 91 83 92 100 100 100 100
100 100 100 100 100 100 100 100 100 100 100 100 100 100 100 100 100 77 22 5 5 5 5 5 5 5 5 5 49 59 100 100 85 80 87 84 87 85 99 100 100 100 100

GFSGL_prec_cloud_042.txt.gz
Cloud_Cover
5 100 56 41 66 58 22 5 17 5 5 5 3 4 5 2 0 0 0 0 0 0 0 0 0 0 0 0 0 0 3 5 5 4 0 1 5 5 5 4 0 14 75
50 11 7 6 92 7 5 5 2 5 5 4 1 1 0 0 0 0 0 0 0 0 0 0 0 0 0 0 4 5 5 5 48 5 5 5 5 4 5 5 5 5 2
1 7 38 77 94 24 3 2 4 0 3 0 0 0 0 0 0 0 0 0 0 0 0 0 0 0 0 0 0 5 5 9 82 92 36 61 42 16 8 5 5 6 43
5 50 38 58 0 2 5 0 5 3 3 0 0 0 0 0 0 0 0 0 0 0 0 0 0 0 0 3 5 18 65 99 99 100 80 91 100 95 94 38 8 27 80
83 96 46 5 0 0 0 0 0 0 0 0 0 0 0 0 0 0 0 0 0 0 0 0 0 1 5 43 56 89 100 100 100 100 98 80 55 98 100 100 67 54 14
5 5 5 5 0 0 0 2 0 0 0 0 0 0 0 0 0 5 5 5 3 0 0 0 0 2 1 5 75 100 100 100 100 100 99 100 100 100 100 100 100 91 20
43 97 94 5 5 5 5 0 0 0 0 0 0 0 0 0 0 5 23 5 5 5 3 2 0 0 5 5 60 100 100 100 100 100 100 100 100 100 100 100 100 100 99
60 16 33 5 34 5 1 0 0 0 0 0 0 0 0 0 0 5 65 5 5 5 5 5 5 5 43 100 100 90 100 100 71 57 41 34 98 81 94 93 100 100 98
98 70 39 100 5 5 0 0 0 0 0 0 3 4 0 0 4 5 67 47 43 87 82 58 84 99 100 100 100 100 38 5 5 45 97 100 100 100 100 100 100 100 100
69 100 96 6 5 5 0 0 0 0 0 5 5 5 5 4 4 5 83 80 98 100 100 100 100 100 100 100 100 100 100 100 99 100 100 92 77 55 100 93 83 100 85
95 35 9 5 5 0 0 0 5 4 5 5 5 5 5 5 5 7 96 100 100 100 100 98 100 100 100 100 100 100 100 100 99 98 94 94 95 97 100 100 100 100 100
36 5 5 5 0 2 5 5 5 5 5 5 5 5 5 5 5 5 84 100 100 100 100 100 100 100 100 95 95 100 100 100 82 90 98 95 98 83 97 100 100 100 100
5 5 5 5 5 5 5 5 2 5 5 5 5 5 5 5 5 5 46 41 100 100 100 100 100 83 9 5 16 100 100 100 100 100 100 100 100 100 100 100 99 100 99
5 5 5 5 5 5 5 5 5 48 32 5 5 11 5 6 9 71 56 80 97 100 100 90 34 5 5 39 7 44 94 100 100 100 100 100 100 100 100 100 100 98 100
7 87 95 96 87 75 52 5 21 11 5 5 13 19 63 96 97 100 100 100 100 100 100 50 5 5 14 46 89 100 100 100 100 100 100 100 100 100 100 100 100 100 100
79 100 100 100 90 59 12 5 7 28 83 100 99 100 99 97 100 100 100 100 100 100 94 81 51 80 97 100 100 100 100 100 100 100 100 100 100 100 100 100 100 100 100
100 84 69 56 90 94 68 13 8 6 6 96 100 100 100 100 100 100 100 100 100 76 39 73 100 100 100 100 100 100 100 100 100 100 100 100 100 100 100 100 100 100 100
89 72 40 97 71 18 5 5 5 6 34 67 86 42 77 100 100 100 100 100 79 17 71 94 99 100 100 100 100 100 100 100 100 100 100 100 100 100 100 100 100 100 100
5 35 32 6 5 5 5 6 54 81 61 37 100 100 95 92 100 100 100 100 61 54 55 34 96 95 79 99 100 100 100 100 100 100 100 100 100 100 100 100 100 100 100
7 17 5 5 7 55 89 100 100 100 92 76 77 99 100 93 48 100 100 37 5 5 5 100 93 88 93 72 79 99 100 100 100 100 100 100 100 100 100 100 100 100 100
92 100 98 78 47 65 92 96 74 69 76 72 64 35 97 100 100 100 100 61 5 5 99 100 100 100 82 59 71 84 93 100 100 100 100 100 100 100 100 100 100 100 100
100 100 81 76 40 81 100 100 100 92 97 97 49 100 100 100 100 99 54 6 5 72 100 100 99 96 58 68 80 91 97 100 100 100 100 100 100 100 100 100 100 100 100
100 100 100 83 96 100 100 97 95 100 99 79 67 100 100 100 100 85 80 72 17 93 100 100 100 45 38 70 100 100 100 100 100 100 100 100 100 100 100 100 100 100 100
100 100 91 93 100 95 100 100 100 67 75 76 91 100 100 100 100 100 96 83 68 100 100 100 98 60 41 5 59 97 100 98 100 100 100 100 100 100 100 100 100 100 100
100 100 88 95 100 100 100 100 98 73 100 100 100 100 100 100 100 100 100 82 97 100 100 100 80 48 33 5 5 5 5 17 100 100 100 100 97 83 92 98 94 100 97
100 100 100 100 100 100 100 100 100 100 100 100 100 100 100 100 100 100 100 100 100 100 100 100 94 70 32 5 5 5 14 100 100 100 100 88 91 83 64 70 37 92 78

GFSGL_prec_cloud_045.txt.gz
Cloud_Cover
100 97 100 100 100 94 48 30 5 35 35 58 12 10 1 0 0 0 0 0 0 0 0 0 0 0 0 0 0 0 0 2 5 0 0 3 4 2 0 1 3 28 14
100 100 100 100 100 82 36 41 13 13 10 64 5 0 0 0 3 0 0 0 0 0 0 0 0 0 0 0 0 0 0 0 3 5 0 5 5 5 5 0 4 5 3
100 100 100 100 90 99 44 71 4 15 54 2 1 0 0 0 0 0 0 0 0 0 0 0 0 0 0 0 0 0 2 5 5 44 5 10 22 5 12 4 4 1 5
100 60 27 18 9 7 6 5 6 5 5 0 0 5 5 0 0 0 0 0 0 0 0 0 0 0 0 0 2 5 5 5 15 51 39 14 76 30 59 48 5 29 7
47 18 12 94 43 16 5 8 32 2 0 5 5 5 1 0 0 0 0 0 0 0 0 0 0 0 0 5 5 5 6 66 89 93 97 100 89 29 95 83 96 26 5
91 78 85 9 12 5 5 5 3 0 5 5 4 0 0 0 0 0 5 5 0 0 0 0 0 0 0 2 5 76 100 100 100 92 79 100 36 5 5 26 100 96 22
100 18 24 5 6 13 5 26 5 5 5 0 0 0 0 0 0 0 5 5 5 2 0 0 0 0 0 1 5 52 51 79 100 100 46 5 67 94 85 72 22 25 60
49 68 64 45 67 75 100 28 6 5 2 2 0 0 0 0 0 0 5 5 5 4 3 3 5 5 5 41 42 92 100 89 60 96 100 96 99 72 83 73 96 82 72
100 98 100 100 100 99 45 53 5 5 4 0 0 2 1 0 3 5 5 5 5 5 5 5 5 5 88 100 100 99 100 92 49 100 99 100 100 100 100 100 100 100 98
100 100 100 100 100 97 21 11 5 5 3 0 0 0 4 5 5 5 5 5 5 5 5 30 65 100 100 100 100 100 100 82 9 43 85 33 28 18 100 100 100 100 100
100 100 100 91 65 90 78 20 5 5 0 3 1 3 2 5 5 5 8 75 21 5 53 67 21 100 100 100 100 81 92 100 96 73 32 88 88 98 98 90 100 100 100
100 100 89 82 78 5 5 5 5 5 5 5 5 5 0 4 5 5 17 69 83 94 40 58 34 100 100 100 56 92 100 91 8 97 100 100 100 98 100 96 10 8 60
100 100 100 55 10 6 5 5 5 5 5 3 1 4 2 5 5 5 5 66 78 94 67 55 100 41 96 9 5 90 75 40 91 100 100 100 100 90 63 90 29 54 100
100 100 72 20 5 6 5 27 33 5 5 5 4 4 5 5 5 5 5 5 29 57 96 98 41 91 5 5 5 12 5 67 89 100 100 66 70 100 100 100 100 100 100
100 99 5 5 28 13 8 52 5 5 5 5 5 5 5 5 5 42 57 32 92 90 100 80 7 5 5 5 5 5 7 21 76 99 100 96 99 100 100 100 100 100 100
17 5 5 15 96 94 56 5 5 5 5 22 44 53 9 66 95 100 100 100 100 100 77 35 63 10 5 5 7 61 78 69 94 97 100 100 100 100 100 100 100 100 100
5 5 5 77 92 59 5 36 9 5 71 86 100 100 100 100 100 100 100 100 100 98 39 10 99 31 5 37 69 94 100 96 86 100 100 100 100 100 100 100 100 100 100
5 5 32 97 81 61 92 27 67 89 30 17 24 84 99 100 100 100 100 100 100 93 100 100 100 36 5 32 61 100 100 98 100 100 100 100 100 100 100 100 100 100 100
5 5 6 72 100 87 96 66 21 5 5 20 32 61 98 100 100 100 100 100 99 75 100 71 91 63 5 13 100 100 100 100 100 100 100 100 100 100 100 100 100 100 100
5 5 9 14 5 5 16 30 56 96 95 95 98 97 50 85 85 98 100 100 100 100 99 87 100 25 5 98 100 100 99 77 98 100 100 100 100 100 100 100 100 100 100
28 80 83 100 99 80 99 100 100 100 100 100 100 100 100 100 97 87 77 100 100 100 100 100 5 12 35 100 100 98 61 77 67 100 100 100 100 100 100 100 100 100 100
92 42 23 93 100 100 100 100 100 100 100 100 100 88 100 100 100 100 100 100 100 100 100 100 11 8 100 100 100 88 65 80 70 97 100 100 100 100 100 100 100 100 100
85 87 100 82 94 100 100 100 100 100 100 100 100 100 100 100 100 100 100 100 100 100 100 100 59 90 100 100 99 71 100 90 71 99 100 100 100 100 100 100 100 100 100
96 100 100 100 100 99 91 100 96 91 98 78 10 27 75 100 100 100 100 100 100 100 100 100 72 100 100 100 72 75 11 67 99 100 100 100 100 100 100 100 100 100 100
100 100 100 99 77 67 66 77 91 99 100 100 98 65 18 96 100 100 100 100 100 100 100 98 100 100 100 91 78 33 42 5 10 82 100 100 100 100 84 76 46 45 24
100 100 100 83 82 90 100 100 100 100 100 100 100 100 100 100 100 100 100 100 100 100 100 100 100 100 100 98 70 54 37 6 89 100 100 100 100 62 28 26 5 5 5

GFSGL_prec_cloud_048.txt.gz
Cloud_Cover
100 100 100 100 100 100 100 100 100 100 100 100 100 100 98 55 16 5 3 0 0 0 0 0 0 0 0 0 0 0 0 0 0 0 0 0 0 5 2 0 0 2 3
100 100 100 100 100 100 97 75 100 90 51 100 85 56 84 83 11 5 0 5 5 5 0 0 0 0 0 0 0 0 0 0 0 4 0 0 5 5 5 2 0 0 2
100 100 100 100 99 100 97 77 29 17 5 44 67 47 22 6 5 5 3 74 69 2 0 0 0 0 0 0 0 0 0 3 5 5 5 5 5 5 5 2 1 1 5
47 43 56 35 22 22 59 60 6 10 17 10 5 5 5 16 2 5 68 4 0 0 0 0 0 0 0 0 0 0 4 5 5 5 48 86 46 6 5 5 5 5 2
6 5 5 11 5 5 5 10 92 8 6 27 4 5 5 5 6 14 0 0 0 0 0 0 0 0 0 0 2 3 5 5 5 62 100 93 90 89 100 62 72 5 5
57 78 5 5 35 58 67 70 74 5 5 5 9 20 41 36 17 5 0 0 0 0 0 0 0 0 0 0 2 5 42 88 100 96 95 100 85 58 66 100 79 85 83
84 96 92 95 87 89 77 99 5 12 24 39 82 89 20 5 4 0 0 2 3 0 0 0 0 0 0 0 0 5 43 50 100 100 100 98 100 100 100 99 99 100 98
100 100 100 93 100 84 98 58 94 85 100 35 20 45 7 5 3 0 0 0 5 1 0 0 0 0 0 4 9 40 99 93 90 89 99 93 94 100 100 100 100 96 91
100 100 100 100 76 90 100 100 100 100 38 82 19 5 5 5 0 0 0 4 5 5 5 3 3 1 2 99 99 89 45 5 5 5 98 100 100 96 100 100 73 100 100
100 100 92 100 100 100 100 100 95 77 98 96 5 21 21 5 0 0 5 5 5 5 5 5 5 38 99 100 100 99 6 5 18 89 5 3 5 5 81 100 100 100 100
100 100 100 100 100 100 100 83 100 98 82 79 28 45 6 5 4 0 5 5 5 5 5 5 5 50 98 100 100 97 11 92 71 6 5 5 5 5 5 20 80 81 100
100 100 100 100 85 100 100 100 100 96 100 90 6 5 5 5 3 1 4 5 22 72 7 24 16 76 100 100 100 56 94 99 20 5 5 5 67 74 8 5 48 70 98
99 67 100 100 100 100 100 100 100 96 98 7 5 5 5 5 5 4 5 33 91 100 83 28 98 100 100 72 6 5 82 5 5 26 5 66 36 5 11 91 81 100 89
100 100 100 100 100 100 100 100 77 42 26 12 5 5 5 5 5 10 8 5 12 38 44 19 24 50 97 16 5 5 32 20 5 5 70 82 6 27 100 100 100 100 100
96 86 100 100 100 100 100 83 32 52 84 22 30 7 5 5 46 74 15 12 64 81 83 90 100 98 23 51 25 51 91 89 5 5 70 48 94 100 100 100 100 100 100
100 100 91 98 100 100 59 9 39 82 88 91 64 63 91 94 100 100 100 100 100 100 100 96 100 83 84 86 63 99 96 90 5 28 98 100 100 100 100 100 100 100 100
100 95 100 100 82 6 14 5 6 94 96 100 100 100 100 100 100 100 100 100 100 100 100 100 100 78 89 100 98 99 97 38 5 87 99 100 100 100 100 100 100 100 100
100 100 85 6 5 5 5 8 93 100 100 100 100 99 83 100 100 100 100 100 100 100 85 99 98 97 80 99 100 90 66 70 35 100 100 97 100 100 100 100 100 100 100
87 5 5 5 5 5 19 99 100 100 100 61 90 94 78 96 100 100 100 100 100 100 100 100 100 100 100 97 100 100 57 9 100 100 94 100 100 100 100 100 100 100 100
5 5 5 5 5 14 88 96 78 82 31 15 86 100 99 100 100 100 100 100 100 83 100 100 100 100 100 100 100 100 70 86 100 100 47 66 100 100 100 100 100 100 100
6 6 28 83 85 56 55 100 80 8 73 100 92 88 98 100 100 100 93 14 10 54 5 100 100 100 100 100 100 100 35 100 100 53 47 76 100 100 100 100 100 100 100
82 92 100 100 13 13 99 100 100 100 95 31 8 22 84 60 5 5 47 91 100 83 94 100 100 100 100 100 100 100 69 71 63 42 55 81 98 100 100 100 100 100 100
100 100 100 36 87 100 100 100 100 57 35 89 91 11 5 5 5 5 5 62 98 100 100 100 100 100 100 100 100 97 99 64 29 55 96 100 97 100 100 100 100 100 100
100 100 96 100 100 100 96 96 34 5 5 50 34 5 5 5 5 5 5 75 65 99 100 100 100 100 100 100 100 100 92 78 58 63 93 100 100 92 100 100 100 99 96
100 100 100 100 100 100 100 79 41 22 5 5 5 8 6 10 8 5 6 5 70 78 100 100 100 100 100 100 100 100 100 100 82 56 11 64 97 86 100 100 100 68 41
100 100 100 100 100 100 100 84 47 17 18 5 7 40 91 99 93 89 77 74 77 69 92 100 100 100 100 100 100 100 100 99 74 59 48 100 100 100 100 100 93 81 64